Weather History for Millinocket, ME

Change the Weather History Date:

Monday, November 19, 2012

  Actual Average Record
Temperature  
Mean Temperature 1 °C 1 °C  
Max Temperature 8 °C 4 °C 17 °C (1987)
Min Temperature -7 °C -3 °C -15 °C (1924)
Degree Days  
Heating Degree Days 32 32  
Month to date heating degree days 540 535  
Since 1 July heating degree days 1245 1469  
Cooling Degree Days 0 0  
Month to date cooling degree days 0 0  
Year to date cooling degree days 443 268  
Moisture  
Dew Point -8 °C    
Average Humidity 59    
Maximum Humidity 92    
Minimum Humidity 25    
Precipitation  
Precipitation 0.00 mm 4.32 mm 3.78 mm (1932)
Month to date precipitation 1.12 2.62  
Year to date precipitation 35.53 37.34  
Sea Level Pressure  
Sea Level Pressure 1032 hPa    
Wind  
Wind Speed 0 km/h (North)    
Max Wind Speed 11 km/h    
Max Gust Speed 19 km/h    
Visibility 13 kilometers    
Events      
T = Trace of Precipitation, MM = Missing Value Source: NWS Daily Summary

Daily Weather History Graph

Daily Weather History Graph

Search for Another Location

Airport:

Trip Planner

Search our weather history database for the weather conditions in past years. The results will help you decide how hot, cold, wet, or windy it might be!

Date:

Astronomy

Nov. 19, 2012 Rise Set
Actual Time 6:40 AM EST 3:59 PM EST
Civil Twilight 6:07 AM EST 4:32 PM EST
Nautical Twilight 5:31 AM EST 5:08 PM EST
Astronomical Twilight 4:56 AM EST 5:43 PM EST
Moon 11:34 AM EST (11/19) 10:31 PM EST (11/19)
Length of Visible Light 10h 24m
Length of Day
9h 19m
Waxing Crescent, 40% of the Moon is Illuminated
Nov 19
Waxing Crescent
Nov 20
First Quarter
Nov 28
Full
Dec 6
Last Quarter
Dec 13
New

Hourly Weather History & Observations

Time (EST) Temp. Windchill Dew Point Humidity Pressure Visibility Wind Dir Wind Speed Gust Speed Precip Events Conditions
12:53 AM -5.6 °C - -7.2 °C 89% 1038.4 hPa 8.0 km Calm Calm - N/A   Clear
1:53 AM -5.6 °C - -7.2 °C 89% 1038.0 hPa 9.7 km Calm Calm - N/A   Clear
2:53 AM -6.1 °C - -7.8 °C 88% 1037.5 hPa 9.7 km Calm Calm - N/A   Clear
3:53 AM -6.1 °C - -7.8 °C 88% 1037.0 hPa 12.9 km Calm Calm - N/A   Clear
4:53 AM -6.1 °C - -7.8 °C 88% 1036.7 hPa 11.3 km Calm Calm - N/A   Clear
5:53 AM -6.1 °C - -7.8 °C 88% 1036.5 hPa 11.3 km Calm Calm - N/A   Clear
6:53 AM -7.2 °C - -8.9 °C 88% 1036.3 hPa 8.0 km Calm Calm - N/A   Clear
7:53 AM -5.0 °C - -7.2 °C 85% 1036.0 hPa 8.0 km Calm Calm - N/A   Clear
8:53 AM -2.2 °C - -4.4 °C 85% 1035.4 hPa 14.5 km Calm Calm - N/A   Clear
9:53 AM 1.1 °C - -3.3 °C 73% 1034.8 hPa 16.1 km Calm Calm - N/A   Clear
10:53 AM 3.9 °C - -4.4 °C 55% 1033.4 hPa 16.1 km Calm Calm - N/A   Clear
11:53 AM 6.7 °C - -10.0 °C 30% 1032.1 hPa 16.1 km Calm Calm - N/A   Clear
12:53 PM 7.2 °C 6.4 °C -11.7 °C 25% 1031.0 hPa 16.1 km Variable 5.6 km/h / 1.5 m/s - N/A   Clear
1:53 PM 7.8 °C - -10.6 °C 26% 1030.4 hPa 16.1 km Calm Calm - N/A   Clear
2:53 PM 6.7 °C 5.8 °C -11.7 °C 26% 1029.9 hPa 16.1 km Variable 5.6 km/h / 1.5 m/s - N/A   Clear
3:53 PM 4.4 °C - -10.0 °C 35% 1029.5 hPa 16.1 km Calm Calm - N/A   Clear
4:53 PM -0.6 °C - -7.8 °C 59% 1029.2 hPa 16.1 km Calm Calm - N/A   Clear
5:53 PM -1.7 °C - -7.8 °C 64% 1029.0 hPa 16.1 km Calm Calm - N/A   Clear
6:53 PM -2.8 °C - -7.2 °C 72% 1028.6 hPa 16.1 km Calm Calm - N/A   Clear
7:53 PM -2.8 °C - -7.2 °C 72% 1027.9 hPa 9.7 km Calm Calm - N/A   Haze
8:53 PM -3.9 °C - -6.7 °C 81% 1027.2 hPa 11.3 km Calm Calm - N/A   Clear
10:53 PM -4.4 °C - -6.7 °C 84% 1026.4 hPa 8.0 km Calm Calm - N/A   Clear
11:53 PM -5.6 °C - -7.8 °C 85% 1025.9 hPa 8.0 km Calm Calm - N/A   Clear